Location: Minneapolis
(45.0000°N, 93.0000°W)
Time: 19:25:13

ISS - Pass Details

Date: 12 March 2018
Orbit: 403 x 406 km, 51.6° (Epoch: 24 March)

Event Time Altitude Azimuth Distance (km) Brightness Sun altitude
Exits shadow 05:37:54 24° 348° (NNW) 894 -2.1 -20.4°
Maximum altitude 05:38:25 25° 4° (N) 866 -2.0 -20.4°
Drops below altitude 10° 05:41:13 10° 63° (ENE) 1,464 0.2 -19.9°
Sets 05:43:32 0° 77° (ENE) 2,323 1.7 -19.5°
